N5CSU Weather Reports


time (UTC)temp
F
wind
direction
speed
knots
gust
knots
rain 1hr
in
rain 24hr
in
rain mn
in
humidity
%
barometer
mb
20220627200535 91 120 0.0 0.0 0.00 0.00 0.00 16 1022.1
20220627200034 91 275 0.0 0.0 0.00 0.00 0.00 16 1022.1
20220627195533 91 142 0.0 0.0 0.00 0.00 0.00 15 1022.1
20220627195032 91 50 0.0 0.0 0.00 0.00 0.00 18 1022.1
20220627194531 91 39 0.0 0.0 0.00 0.00 0.00 19 1022.1
20220627194031 90 229 0.0 0.0 0.00 0.00 0.00 18 1022.1
20220627193531 90 242 0.0 0.0 0.00 0.00 0.00 18 1022.4
20220627193030 90 230 0.0 0.0 0.00 0.00 0.00 19 1022.1
20220627192529 90 37 0.0 0.0 0.00 0.00 0.00 18 1022.1
20220627192028 90 250 0.0 0.0 0.00 0.00 0.00 19 1022.4
20220627191526 90 114 0.0 0.0 0.00 0.00 0.00 18 1022.4
20220627191025 89 191 0.0 0.0 0.00 0.00 0.00 19 1022.4
20220627190524 89 339 0.0 0.0 0.00 0.00 0.00 19 1022.4
20220627190023 89 293 0.0 0.0 0.00 0.00 0.00 20 1022.4
20220627185522 89 319 0.0 0.0 0.00 0.00 0.00 19 1022.7
20220627185020 89 138 0.0 0.0 0.00 0.00 0.00 20 1022.7
20220627184521 89 101 0.0 0.0 0.00 0.00 0.00 21 1022.7
20220627184020 89 129 0.0 0.0 0.00 0.00 0.00 21 1022.7
20220627183519 89 205 0.0 0.0 0.00 0.00 0.00 21 1022.7
20220627183019 89 225 0.0 0.0 0.00 0.00 0.00 20 1023.1
20220627182518 89 356 0.0 0.0 0.00 0.00 0.00 21 1023.1
20220627182019 88 137 0.0 0.0 0.00 0.00 0.00 22 1023.1
20220627181519 88 12 0.0 0.0 0.00 0.00 0.00 21 1023.4
20220627181018 88 98 0.0 0.0 0.00 0.00 0.00 20 1023.4
20220627180517 88 206 0.0 0.0 0.00 0.00 0.00 22 1023.4
20220627180017 88 41 0.0 0.0 0.00 0.00 0.00 21 1023.4
20220627175515 88 334 0.0 0.0 0.00 0.00 0.00 20 1023.9
20220627175015 88 311 0.0 0.0 0.00 0.00 0.00 22 1023.4
20220627174513 88 286 0.0 0.0 0.00 0.00 0.00 21 1023.9
20220627174012 87 288 0.0 0.0 0.00 0.00 0.00 21 1023.9
20220627173512 87 139 0.0 0.0 0.00 0.00 0.00 21 1023.4
20220627173010 87 67 0.0 0.0 0.00 0.00 0.00 22 1023.9
20220627172509 87 314 0.0 0.0 0.00 0.00 0.00 22 1023.9
20220627172007 87 39 0.0 0.0 0.00 0.00 0.00 22 1023.9
20220627171506 87 4 0.0 2.6 0.00 0.00 0.00 22 1023.9
20220627171005 87 20 0.0 0.0 0.00 0.00 0.00 23 1024.2
20220627170505 87 297 0.0 0.0 0.00 0.00 0.00 23 1023.9
20220627170004 86 315 0.0 0.0 0.00 0.00 0.00 22 1023.9
20220627165504 86 318 0.0 0.0 0.00 0.00 0.00 22 1024.2
20220627165003 86 114 0.0 0.0 0.00 0.00 0.00 23 1024.2
20220627164501 86 52 0.0 0.0 0.00 0.00 0.00 22 1023.9
20220627164000 86 358 0.0 0.0 0.00 0.00 0.00 24 1024.2
20220627163501 86 165 0.0 0.0 0.00 0.00 0.00 24 1024.2
20220627163000 86 9 0.0 0.0 0.00 0.00 0.00 22 1024.2
20220627162501 86 43 0.0 0.0 0.00 0.00 0.00 25 1023.9
20220627162000 85 140 0.0 0.0 0.00 0.00 0.00 24 1023.9
20220627161459 85 163 0.0 2.6 0.00 0.00 0.00 25 1024.2
20220627160958 84 5 0.0 0.0 0.00 0.00 0.00 25 1023.9
20220627160458 84 77 0.0 0.0 0.00 0.00 0.00 25 1024.2
20220627155957 84 34 0.0 0.0 0.00 0.00 0.00 24 1024.2
20220627155457 83 349 0.0 0.0 0.00 0.00 0.00 26 1024.2
20220627154955 83 195 0.0 0.0 0.00 0.00 0.00 26 1024.2
20220627154454 83 211 0.0 0.0 0.00 0.00 0.00 27 1024.2
20220627153954 83 280 0.0 0.0 0.00 0.00 0.00 27 1024.2
20220627153452 82 147 0.0 0.0 0.00 0.00 0.00 26 1024.2
20220627152952 82 34 0.0 0.0 0.00 0.00 0.00 26 1024.2
20220627152451 82 42 0.0 0.0 0.00 0.00 0.00 28 1024.2
20220627151951 82 175 0.0 0.0 0.00 0.00 0.00 27 1024.5
20220627151450 82 76 0.0 0.0 0.00 0.00 0.00 27 1024.5
20220627150949 81 201 0.0 0.0 0.00 0.00 0.00 28 1024.2
20220627150447 81 210 0.0 0.0 0.00 0.00 0.00 28 1024.2
20220627145946 81 164 0.0 0.0 0.00 0.00 0.00 28 1024.2
20220627145446 80 137 0.0 0.0 0.00 0.00 0.00 28 1023.9
20220627144945 80 149 0.0 0.0 0.00 0.00 0.00 29 1024.2
20220627144444 80 10 0.0 0.0 0.00 0.00 0.00 29 1024.2
20220627143943 80 7 0.0 0.0 0.00 0.00 0.00 29 1024.2
20220627143442 80 15 0.0 0.0 0.00 0.00 0.00 30 1024.2
20220627142941 79 352 0.0 0.0 0.00 0.00 0.00 30 1024.5
20220627142442 79 353 0.0 0.0 0.00 0.00 0.00 29 1024.2
20220627141941 79 356 0.0 0.0 0.00 0.00 0.00 29 1024.2
20220627141441 78 328 0.0 0.0 0.00 0.00 0.00 29 1024.2
20220627140940 78 54 0.0 0.0 0.00 0.00 0.00 29 1024.2
20220627140439 77 292 0.0 0.0 0.00 0.00 0.00 29 1024.2
20220627135939 77 326 0.0 0.0 0.00 0.00 0.00 31 1023.9
20220627135439 76 60 0.0 0.0 0.00 0.00 0.00 30 1024.2
20220627134939 76 212 0.0 0.0 0.00 0.00 0.00 30 1023.9
20220627134440 76 205 0.0 0.0 0.00 0.00 0.00 32 1024.2
20220627133938 75 276 0.0 0.0 0.00 0.00 0.00 32 1024.2
20220627133438 75 335 0.0 0.0 0.00 0.00 0.00 32 1024.5
20220627132937 75 318 0.0 0.0 0.00 0.00 0.00 31 1024.2
20220627132436 75 219 0.0 0.0 0.00 0.00 0.00 32 1023.9
20220627131937 75 193 0.0 0.0 0.00 0.00 0.00 32 1024.2
20220627131436 75 148 0.0 0.0 0.00 0.00 0.00 32 1023.9
20220627130935 75 339 0.0 0.0 0.00 0.00 0.00 32 1023.9
20220627130434 75 60 0.0 0.0 0.00 0.00 0.00 31 1023.9
20220627125933 75 328 0.0 0.0 0.00 0.00 0.00 32 1023.9
20220627125432 75 339 0.0 0.0 0.00 0.00 0.00 32 1023.9
20220627124933 75 43 0.0 0.0 0.00 0.00 0.00 31 1023.9
20220627124431 75 328 0.0 0.0 0.00 0.00 0.00 31 1023.4
20220627123931 75 282 0.0 0.0 0.00 0.00 0.00 31 1023.9
20220627123429 75 247 0.0 0.0 0.00 0.00 0.00 31 1023.9
20220627122929 75 328 0.0 0.0 0.00 0.00 0.00 30 1023.4
20220627122427 75 10 0.0 0.0 0.00 0.00 0.00 30 1023.4
20220627121927 75 249 0.0 0.0 0.00 0.00 0.00 31 1023.4
20220627121427 75 171 0.0 0.0 0.00 0.00 0.00 31 1023.4
20220627120926 75 144 0.0 0.0 0.00 0.00 0.00 30 1023.4
20220627120425 75 293 0.0 0.0 0.00 0.00 0.00 30 1023.4
20220627115924 75 320 0.0 0.0 0.00 0.00 0.00 31 1023.4
20220627115423 75 190 0.0 0.0 0.00 0.00 0.00 30 1023.1
20220627114923 75 333 0.0 0.0 0.00 0.00 0.00 29 1023.1
20220627114421 75 331 0.0 0.0 0.00 0.00 0.00 28 1023.1
20220627113920 75 333 0.0 0.0 0.00 0.00 0.00 28 1022.7
20220627113419 75 11 0.0 0.0 0.00 0.00 0.00 28 1023.1
20220627112918 75 330 0.0 0.0 0.00 0.00 0.00 28 1022.7
20220627112418 75 322 0.0 0.0 0.00 0.00 0.00 27 1023.1
20220627111917 75 281 0.0 0.0 0.00 0.00 0.00 28 1022.7
20220627111416 75 285 0.0 0.0 0.00 0.00 0.00 27 1022.7
20220627110916 75 280 0.0 0.0 0.00 0.00 0.00 27 1022.7
20220627110415 75 327 0.0 0.0 0.00 0.00 0.00 27 1022.7
20220627105915 75 53 0.0 0.0 0.00 0.00 0.00 27 1022.7
20220627105414 75 296 0.0 0.0 0.00 0.00 0.00 27 1023.1
20220627104913 75 285 0.0 0.0 0.00 0.00 0.00 26 1022.7
20220627104412 75 314 0.0 0.0 0.00 0.00 0.00 26 1022.7
20220627103911 75 251 0.0 0.0 0.00 0.00 0.00 26 1022.7
20220627103410 75 321 0.0 0.0 0.00 0.00 0.00 26 1022.4
20220627102907 75 151 0.0 0.0 0.00 0.00 0.00 25 1022.7
20220627102406 75 1 0.0 0.0 0.00 0.00 0.00 25 1022.7
20220627101905 75 303 0.0 0.0 0.00 0.00 0.00 25 1022.4
20220627101404 75 319 0.0 0.0 0.00 0.00 0.00 25 1022.7
20220627100904 75 283 0.0 0.0 0.00 0.00 0.00 25 1022.7
20220627100403 76 201 0.0 0.0 0.00 0.00 0.00 25 1022.7
20220627095903 76 121 0.0 0.0 0.00 0.00 0.00 25 1022.7
20220627095402 76 178 0.0 0.0 0.00 0.00 0.00 25 1022.7
20220627094901 76 238 0.0 0.0 0.00 0.00 0.00 24 1022.4
20220627094401 77 316 0.0 0.0 0.00 0.00 0.00 23 1022.4
20220627093859 77 264 0.0 0.0 0.00 0.00 0.00 23 1022.7
20220627093358 77 0 0.0 0.0 0.00 0.00 0.00 23 1022.7
20220627092857 77 347 0.0 0.0 0.00 0.00 0.00 23 1022.4
20220627092356 77 157 0.0 0.0 0.00 0.00 0.00 23 1022.4
20220627091855 77 201 0.0 0.0 0.00 0.00 0.00 23 1022.4
20220627091356 77 33 0.0 0.0 0.00 0.00 0.00 23 1022.7
20220627090856 77 315 0.0 0.0 0.00 0.00 0.00 22 1022.4
20220627090354 78 325 0.0 0.0 0.00 0.00 0.00 22 1022.4
20220627085854 78 334 0.0 0.0 0.00 0.00 0.00 22 1022.7
20220627085353 78 337 0.0 0.0 0.00 0.00 0.00 22 1022.4
20220627084853 78 318 0.0 0.0 0.00 0.00 0.00 23 1022.4
20220627084351 79 250 0.0 0.0 0.00 0.00 0.00 23 1022.4
20220627083850 79 346 0.0 0.0 0.00 0.00 0.00 23 1022.1
20220627083349 79 335 0.0 0.0 0.00 0.00 0.00 23 1022.4
20220627082849 79 281 0.0 0.0 0.00 0.00 0.00 25 1022.1
20220627082348 79 266 0.0 0.0 0.00 0.00 0.00 26 1022.4
20220627081848 80 288 0.0 0.0 0.00 0.00 0.00 26 1022.4
20220627081347 80 8 0.0 0.0 0.00 0.00 0.00 28 1022.4
20220627080847 80 356 0.0 0.0 0.00 0.00 0.00 28 1022.1
20220627080346 80 96 0.0 0.0 0.00 0.00 0.00 29 1022.4
20220627075847 80 258 0.0 0.0 0.00 0.00 0.00 29 1022.1
20220627075346 81 317 0.0 0.0 0.00 0.00 0.00 29 1022.4
20220627074844 81 244 0.0 0.0 0.00 0.00 0.00 29 1022.1
20220627074343 81 245 0.0 0.0 0.00 0.00 0.00 30 1022.1
20220627073843 81 354 0.0 0.0 0.00 0.00 0.00 29 1022.1
20220627073342 81 6 0.0 0.0 0.00 0.00 0.00 29 1022.1
20220627072842 81 27 0.0 0.0 0.00 0.00 0.00 30 1022.1
20220627072342 81 8 0.0 0.0 0.00 0.00 0.00 30 1022.1
20220627071841 82 56 0.0 0.0 0.00 0.00 0.00 30 1022.4
20220627071340 82 118 0.0 0.0 0.00 0.00 0.00 30 1022.1
20220627070840 82 320 0.0 0.0 0.00 0.00 0.00 30 1022.4
20220627070338 82 331 0.0 0.0 0.00 0.00 0.00 30 1022.4
20220627065838 82 319 0.0 0.0 0.00 0.00 0.00 30 1022.4
20220627065337 82 328 0.0 0.0 0.00 0.00 0.00 30 1022.1
20220627064836 82 295 0.0 0.0 0.00 0.00 0.00 30 1022.4
20220627064335 82 229 0.0 0.0 0.00 0.00 0.00 30 1022.4
20220627063835 83 352 0.0 0.0 0.00 0.00 0.00 29 1022.1
20220627063334 83 313 0.0 0.0 0.00 0.00 0.00 31 1022.1
20220627062833 83 96 0.0 0.0 0.00 0.00 0.00 31 1022.4
20220627062333 83 299 0.0 0.0 0.00 0.00 0.00 31 1022.4
20220627061831 83 335 0.0 0.0 0.00 0.00 0.00 30 1022.1
20220627061330 83 309 0.0 0.0 0.00 0.00 0.00 30 1022.4
20220627060829 83 165 0.0 0.0 0.00 0.00 0.00 31 1022.4
20220627060328 83 77 0.0 0.0 0.00 0.00 0.00 30 1022.4
20220627055827 83 358 0.0 0.0 0.00 0.00 0.00 30 1022.4
20220627055325 83 124 0.0 0.0 0.00 0.00 0.00 30 1022.4
20220627054825 83 73 0.0 0.0 0.00 0.00 0.00 30 1022.4
20220627054323 83 353 0.0 0.0 0.00 0.00 0.00 30 1022.4
20220627053823 83 168 0.0 0.0 0.00 0.00 0.00 30 1022.4
20220627053321 84 218 0.0 0.0 0.00 0.00 0.00 29 1022.1
20220627052820 84 348 0.0 0.0 0.00 0.00 0.00 29 1022.1
20220627052319 84 120 0.0 0.0 0.00 0.00 0.00 29 1022.4
20220627051817 84 226 0.0 0.0 0.00 0.00 0.00 29 1022.1
20220627051316 84 289 0.0 2.6 0.00 0.00 0.00 28 1022.1
20220627050814 84 351 0.0 0.0 0.00 0.00 0.00 28 1022.4
20220627050312 84 28 0.0 0.0 0.00 0.00 0.00 28 1022.1
20220627045812 84 244 0.0 0.0 0.00 0.00 0.00 27 1022.1
20220627045311 85 328 0.0 0.0 0.00 0.00 0.00 26 1022.1
20220627044811 85 7 0.0 0.0 0.00 0.00 0.00 26 1022.1
20220627044310 85 338 0.0 0.0 0.00 0.00 0.00 26 1022.1
20220627043809 85 294 0.0 0.0 0.00 0.00 0.00 26 1022.1
20220627043307 85 326 0.0 0.0 0.00 0.00 0.00 25 1022.1
20220627042807 85 233 0.0 0.0 0.00 0.00 0.00 25 1022.1
20220627042305 86 241 0.0 0.0 0.00 0.00 0.00 25 1022.1
20220627041805 86 265 0.0 0.0 0.00 0.00 0.00 25 1022.1
20220627041303 86 158 0.0 0.0 0.00 0.00 0.00 25 1021.4
20220627040802 86 173 0.0 0.0 0.00 0.00 0.00 25 1021.4
20220627040301 86 359 0.0 0.0 0.00 0.00 0.00 25 1021.4
20220627035800 86 294 0.0 0.0 0.00 0.00 0.00 25 1021.7
20220627035259 86 207 0.0 0.0 0.00 0.00 0.00 25 1021.4
20220627034758 87 233 0.0 0.0 0.00 0.00 0.00 24 1021.4
20220627034258 87 205 0.0 0.0 0.00 0.00 0.00 25 1021.4
20220627033757 87 161 0.0 0.0 0.00 0.00 0.00 25 1021.4
20220627033255 87 15 0.0 0.0 0.00 0.00 0.00 24 1021.0
20220627032754 87 12 0.0 0.0 0.00 0.00 0.00 24 1021.0
20220627032253 87 3 0.0 2.6 0.00 0.00 0.00 25 1021.0
20220627031752 88 144 2.6 4.3 0.00 0.00 0.00 25 1021.0
20220627031251 88 99 0.0 0.0 0.00 0.00 0.00 24 1021.0
20220627030751 88 8 0.0 0.0 0.00 0.00 0.00 23 1021.0
20220627030248 88 287 0.0 0.0 0.00 0.00 0.00 23 1021.0
20220627025747 89 124 0.0 0.0 0.00 0.00 0.00 23 1020.7
20220627025246 89 321 0.0 0.0 0.00 0.00 0.00 23 1020.7
20220627024747 89 269 0.0 0.0 0.00 0.00 0.00 23 1020.7
20220627024247 89 329 0.0 0.0 0.00 0.00 0.00 23 1020.4
20220627023746 90 22 0.0 0.0 0.00 0.00 0.00 22 1020.7
20220627023245 90 335 0.0 0.0 0.00 0.00 0.00 22 1020.4
20220627022743 90 35 0.0 0.0 0.00 0.00 0.00 22 1020.4
20220627022242 91 223 0.0 0.0 0.00 0.00 0.00 20 1020.4
20220627021740 91 10 0.0 0.0 0.00 0.00 0.00 20 1020.0
20220627021239 91 264 0.0 0.0 0.00 0.00 0.00 20 1020.4
20220627020738 91 11 0.0 2.6 0.00 0.00 0.00 19 1020.4
20220627020236 91 42 0.0 0.0 0.00 0.00 0.00 19 1020.0
20220627015735 92 120 0.0 0.0 0.00 0.00 0.00 18 1020.0
20220627015235 92 233 0.0 0.0 0.00 0.00 0.00 12 1019.7
20220627014734 92 0 0.0 0.0 0.00 0.00 0.00 12 1019.7
20220627014233 92 211 0.0 0.0 0.00 0.00 0.00 12 1019.4
20220627013732 92 250 0.0 0.0 0.00 0.00 0.00 12 1018.7
20220627013231 93 293 0.0 0.0 0.00 0.00 0.00 12 1019.0
20220627012730 93 125 0.0 0.0 0.00 0.00 0.00 12 1018.7
20220627012229 93 170 0.0 0.0 0.00 0.00 0.00 12 1019.0
20220627011728 93 210 0.0 0.0 0.00 0.00 0.00 12 1018.7
20220627011227 93 8 0.0 0.0 0.00 0.00 0.00 12 1019.0
20220627010726 93 257 0.0 0.0 0.00 0.00 0.00 12 1018.7
20220627010227 93 13 0.0 0.0 0.00 0.00 0.00 12 1018.7
20220627005726 94 4 0.0 0.0 0.00 0.00 0.00 12 1018.7
20220627005225 94 213 0.0 0.0 0.00 0.00 0.00 12 1018.7
20220627004724 95 354 0.0 0.0 0.00 0.00 0.00 12 1018.3
20220627004224 95 339 0.0 0.0 0.00 0.00 0.00 12 1018.3
20220627003722 96 54 0.0 0.0 0.00 0.00 0.00 10 1018.3
20220627003222 96 239 0.0 0.0 0.00 0.00 0.00 11 1018.7
20220627002721 96 318 0.0 0.0 0.00 0.00 0.00 10 1018.3
20220627002221 96 327 0.0 0.0 0.00 0.00 0.00 10 1018.7
20220627001721 96 14 0.0 0.0 0.00 0.00 0.00 10 1018.3
20220627001220 97 12 0.0 0.0 0.00 0.00 0.00 10 1018.3
20220627000719 97 6 0.0 0.0 0.00 0.00 0.00 10 1018.3
20220627000217 97 355 0.0 0.0 0.00 0.00 0.00 10 1018.3
20220626235715 97 353 0.0 0.0 0.00 0.00 0.00 10 1018.0
20220626235214 97 354 0.0 0.0 0.00 0.00 0.00 10 1018.0
20220626234714 97 16 0.0 0.0 0.00 0.00 0.00 10 1017.7
20220626234213 97 52 0.0 0.0 0.00 0.00 0.00 10 1017.7
20220626233712 97 3 0.0 0.0 0.00 0.00 0.00 10 1017.7
20220626233211 97 3 0.0 0.0 0.00 0.00 0.00 10 1017.7
20220626232710 97 208 0.0 0.0 0.00 0.00 0.00 10 1017.7
20220626232208 98 152 0.0 0.0 0.00 0.00 0.00 10 1017.7
20220626231707 98 13 0.0 0.0 0.00 0.00 0.00 10 1017.7
20220626231207 98 14 0.0 0.0 0.00 0.00 0.00 10 1017.7
20220626230706 98 41 0.0 0.0 0.00 0.00 0.00 10 1017.7
20220626230205 98 80 0.0 0.0 0.00 0.00 0.00 10 1017.7
20220626225704 98 7 0.0 0.0 0.00 0.00 0.00 10 1017.7
20220626225203 98 193 0.0 0.0 0.00 0.00 0.00 10 1018.0
20220626224702 98 133 0.0 0.0 0.00 0.00 0.00 10 1018.0
20220626224201 98 145 0.0 0.0 0.00 0.00 0.00 10 1018.0
20220626223659 98 39 0.0 0.0 0.00 0.00 0.00 10 1018.0
20220626223158 98 338 0.0 0.0 0.00 0.00 0.00 10 1018.0
20220626222658 99 183 0.0 0.0 0.00 0.00 0.00 10 1018.0
20220626222156 99 4 0.0 0.0 0.00 0.00 0.00 10 1018.0
20220626221657 99 237 0.0 0.0 0.00 0.00 0.00 10 1018.0
20220626221157 99 8 0.0 2.6 0.00 0.00 0.00 10 1018.0
20220626220655 99 174 0.0 2.6 0.00 0.00 0.00 10 1018.0
20220626220154 99 337 0.0 0.0 0.00 0.00 0.00 10 1018.0
20220626215652 99 161 0.0 0.0 0.00 0.00 0.00 10 1018.3
20220626215151 99 9 0.0 0.0 0.00 0.00 0.00 10 1018.3
20220626214651 99 344 0.0 0.0 0.00 0.00 0.00 10 1018.3
20220626214150 99 146 0.0 0.0 0.00 0.00 0.00 10 1018.3
20220626213648 99 164 0.0 0.0 0.00 0.00 0.00 10 1018.3
20220626213148 99 209 0.0 0.0 0.00 0.00 0.00 10 1018.3
20220626212646 100 196 0.0 0.0 0.00 0.00 0.00 10 1018.3
20220626212146 100 330 0.0 0.0 0.00 0.00 0.00 10 1018.7
20220626211646 100 36 0.0 0.0 0.00 0.00 0.00 10 1018.3
20220626211146 100 307 0.0 0.0 0.00 0.00 0.00 10 1018.7
20220626210645 100 341 0.0 0.0 0.00 0.00 0.00 10 1018.3
20220626210143 100 8 0.0 0.0 0.00 0.00 0.00 12 1018.3
20220626205643 100 353 0.0 0.0 0.00 0.00 0.00 12 1018.3
20220626205142 100 327 0.0 0.0 0.00 0.00 0.00 10 1018.7
20220626204642 100 285 0.0 0.0 0.00 0.00 0.00 10 1018.7
20220626204141 100 183 0.0 0.0 0.00 0.00 0.00 10 1018.7
20220626203640 100 61 0.0 2.6 0.00 0.00 0.00 10 1018.7
20220626203139 100 300 0.0 0.0 0.00 0.00 0.00 10 1019.0
20220626202639 100 28 0.0 0.0 0.00 0.00 0.00 10 1019.0
20220626202139 100 204 0.0 0.0 0.00 0.00 0.00 10 1018.7
20220626201638 100 164 0.0 0.0 0.00 0.00 0.00 10 1019.0
20220626201136 100 51 0.0 0.0 0.00 0.00 0.00 12 1019.0